This is the latest recevied weather packets stored in our database for station/object N4JTC. If no packets are shown the sender has not sent any weather packets the latest 10 day(s).
| Time | Temp. | Humidity | Pressure | Rain* | Wind** | Luminosity | Snow |
|---|---|---|---|---|---|---|---|
| 1778083503 | 26.11° C | 78% | 1017.6 hPa | 0 mm | - | 343 W/m² | - |
| 1778082902 | 26.67° C | 77% | 1017.7 hPa | 0 mm | - | 338 W/m² | - |
| 1778082603 | 26.67° C | 79% | 1017.7 hPa | 0 mm | - | 996 W/m² | - |
| 1778082303 | 26.67° C | 79% | 1017.6 hPa | 0 mm | - | 263 W/m² | - |
| 1778082003 | 26.67° C | 78% | 1017.6 hPa | 0 mm | - | 353 W/m² | - |
| 1778081703 | 26.11° C | 80% | 1017.7 hPa | 0 mm | - | 970 W/m² | - |
| 1778081403 | 26.11° C | 80% | 1017.6 hPa | 0 mm | - | 277 W/m² | - |
| 1778081102 | 26.11° C | 78% | 1017.4 hPa | 0 mm | - | 339 W/m² | - |
| 1778080803 | 26.11° C | 79% | 1017.4 hPa | 0 mm | - | 551 W/m² | - |
| 1778080504 | 25.56° C | 80% | 1017.4 hPa | 0 mm | - | 321 W/m² | - |
| 1778080203 | 25.56° C | 81% | 1017.5 hPa | 0 mm | - | 298 W/m² | - |
| 1778079903 | 25.56° C | 80% | 1017.2 hPa | 0 mm | - | 301 W/m² | - |
| 1778079303 | 26.11° C | 80% | 1017.2 hPa | 0 mm | - | 327 W/m² | - |
| 1778079003 | 26.11° C | 80% | 1017.1 hPa | 0 mm | - | 356 W/m² | - |
| 1778078702 | 26.11° C | 80% | 1017.1 hPa | 0 mm | - | 378 W/m² | - |
| 1778078103 | 25.56° C | 80% | 1017.1 hPa | 0 mm | - | 379 W/m² | - |
| 1778077803 | 25.56° C | 81% | 1017.2 hPa | 0 mm | - | 629 W/m² | - |
| 1778077503 | 25.56° C | 81% | 1017 hPa | 0 mm | - | 704 W/m² | - |
| 1778076903 | 25.56° C | 81% | 1016.8 hPa | 0 mm | - | 219 W/m² | - |
| 1778076303 | 25.56° C | 82% | 1016.7 hPa | 0 mm | - | 498 W/m² | - |
| 1778076002 | 25.56° C | 82% | 1016.9 hPa | 0 mm | - | 212 W/m² | - |
| 1778075703 | 25.56° C | 82% | 1016.8 hPa | 0 mm | - | 202 W/m² | - |
| 1778075403 | 25° C | 83% | 1016.7 hPa | 0 mm | - | 531 W/m² | - |
| 1778075103 | 25° C | 84% | 1016.6 hPa | 0 mm | - | 450 W/m² | - |
| 1778074502 | 24.44° C | 86% | 1016.8 hPa | 0 mm | - | 341 W/m² | - |
* Rain latest hour (hover to see other rain measurements)
** Current wind speed in m/s (hover to see current wind gust speed)